TimePDT,TemperatureF,Dew PointF,Humidity,Sea Level PressureIn,VisibilityMPH,Wind Direction,Wind SpeedMPH,Gust SpeedMPH,PrecipitationIn,Events,Conditions,WindDirDegrees,DateUTC
12:15 AM,41.0,17.6,39,30.13,10.0,Calm,Calm,-,N/A,,Clear,0,2013-03-19 07:15:00
12:35 AM,41.0,17.6,39,30.14,10.0,Calm,Calm,-,N/A,,Clear,0,2013-03-19 07:35:00
12:55 AM,39.2,19.4,45,30.13,10.0,West,3.5,-,N/A,,Clear,260,2013-03-19 07:55:00
1:15 AM,41.0,17.6,39,30.12,10.0,WSW,3.5,-,N/A,,Clear,250,2013-03-19 08:15:00
1:35 AM,39.2,17.6,42,30.11,10.0,Calm,Calm,-,N/A,,Clear,0,2013-03-19 08:35:00
1:55 AM,37.4,19.4,48,30.12,10.0,WSW,3.5,-,N/A,,Clear,250,2013-03-19 08:55:00
2:15 AM,39.2,17.6,42,30.11,10.0,Calm,Calm,-,N/A,,Clear,0,2013-03-19 09:15:00
2:35 AM,39.2,17.6,42,30.11,10.0,SSW,4.6,-,N/A,,Scattered Clouds,200,2013-03-19 09:35:00
2:55 AM,39.2,15.8,39,30.11,10.0,Calm,Calm,-,N/A,,Clear,0,2013-03-19 09:55:00
3:15 AM,41.0,15.8,36,30.11,10.0,SW,6.9,-,N/A,,Clear,220,2013-03-19 10:15:00
3:35 AM,41.0,17.6,39,30.11,10.0,WSW,10.4,18.4,N/A,,Clear,240,2013-03-19 10:35:00
3:55 AM,41.0,19.4,42,30.11,10.0,SW,11.5,17.3,N/A,,Clear,230,2013-03-19 10:55:00
4:15 AM,41.0,19.4,42,30.11,10.0,WSW,10.4,18.4,N/A,,Clear,250,2013-03-19 11:15:00
4:35 AM,39.2,21.2,49,30.11,10.0,SW,11.5,-,N/A,,Clear,230,2013-03-19 11:35:00
4:55 AM,37.4,21.2,52,30.11,10.0,WSW,9.2,-,N/A,,Clear,240,2013-03-19 11:55:00
5:15 AM,37.4,19.4,48,30.12,10.0,WSW,8.1,-,N/A,,Clear,240,2013-03-19 12:15:00
5:35 AM,39.2,19.4,45,30.12,10.0,WSW,11.5,-,N/A,,Clear,240,2013-03-19 12:35:00
5:55 AM,39.2,19.4,45,30.12,10.0,WSW,12.7,19.6,N/A,,Clear,240,2013-03-19 12:55:00
6:15 AM,39.2,21.2,49,30.13,10.0,WSW,8.1,-,N/A,,Clear,240,2013-03-19 13:15:00
6:35 AM,41.0,23.0,49,30.13,10.0,WSW,6.9,18.4,N/A,,Clear,240,2013-03-19 13:35:00
6:55 AM,41.0,21.2,45,30.14,10.0,WSW,8.1,-,N/A,,Clear,240,2013-03-19 13:55:00
7:15 AM,39.2,21.2,49,30.13,10.0,SW,10.4,-,N/A,,Clear,230,2013-03-19 14:15:00
7:35 AM,41.0,21.2,45,30.14,10.0,SW,5.8,-,N/A,,Clear,220,2013-03-19 14:35:00
7:55 AM,41.0,23.0,49,30.16,10.0,Calm,Calm,-,N/A,,Clear,0,2013-03-19 14:55:00
8:15 AM,44.6,23.0,43,30.16,10.0,West,16.1,20.7,N/A,,Clear,270,2013-03-19 15:15:00
8:35 AM,46.4,21.2,37,30.16,10.0,West,12.7,25.3,N/A,,Clear,260,2013-03-19 15:35:00
8:55 AM,46.4,21.2,37,30.18,10.0,WSW,9.2,17.3,N/A,,Clear,240,2013-03-19 15:55:00
9:15 AM,48.2,23.0,37,30.19,10.0,West,9.2,16.1,N/A,,Clear,260,2013-03-19 16:15:00
9:35 AM,48.2,23.0,37,30.18,10.0,SW,9.2,20.7,N/A,,Clear,230,2013-03-19 16:35:00
9:55 AM,50.0,21.2,32,30.19,10.0,WSW,9.2,16.1,N/A,,Clear,240,2013-03-19 16:55:00
10:15 AM,50.0,21.2,32,30.19,10.0,WSW,10.4,-,N/A,,Clear,240,2013-03-19 17:15:00
10:35 AM,51.8,21.2,30,30.19,10.0,West,8.1,-,N/A,,Clear,260,2013-03-19 17:35:00
10:55 AM,51.8,21.2,30,30.19,10.0,SW,4.6,10.4,N/A,,Clear,230,2013-03-19 17:55:00
11:15 AM,51.8,21.2,30,30.18,10.0,WNW,4.6,-,N/A,,Clear,290,2013-03-19 18:15:00
11:35 AM,53.6,21.2,28,30.18,10.0,WSW,4.6,-,N/A,,Clear,250,2013-03-19 18:35:00
11:55 AM,53.6,21.2,28,30.19,10.0,WSW,9.2,-,N/A,,Clear,250,2013-03-19 18:55:00
12:15 PM,53.6,21.2,28,30.19,10.0,WSW,10.4,-,N/A,,Clear,240,2013-03-19 19:15:00
12:35 PM,55.4,21.2,26,30.19,10.0,West,9.2,16.1,N/A,,Clear,270,2013-03-19 19:35:00
12:55 PM,55.4,21.2,26,30.18,10.0,WSW,8.1,-,N/A,,Clear,240,2013-03-19 19:55:00
1:15 PM,55.4,21.2,26,30.18,10.0,West,10.4,17.3,N/A,,Clear,260,2013-03-19 20:15:00
1:35 PM,55.4,21.2,26,30.18,10.0,West,11.5,16.1,N/A,,Clear,260,2013-03-19 20:35:00
1:55 PM,55.4,21.2,26,30.18,10.0,WSW,10.4,-,N/A,,Clear,250,2013-03-19 20:55:00
2:15 PM,55.4,21.2,26,30.17,10.0,SW,8.1,-,N/A,,Clear,230,2013-03-19 21:15:00
2:35 PM,55.4,21.2,26,30.16,10.0,West,9.2,-,N/A,,Clear,260,2013-03-19 21:35:00
2:55 PM,57.2,21.2,25,30.16,10.0,West,11.5,-,N/A,,Clear,260,2013-03-19 21:55:00
3:15 PM,55.4,19.4,25,30.17,10.0,WSW,6.9,-,N/A,,Clear,240,2013-03-19 22:15:00
3:35 PM,57.2,19.4,23,30.16,10.0,WSW,6.9,-,N/A,,Clear,240,2013-03-19 22:35:00
3:55 PM,55.4,21.2,26,30.17,10.0,West,6.9,-,N/A,,Clear,260,2013-03-19 22:55:00
4:15 PM,55.4,21.2,26,30.17,10.0,WSW,8.1,-,N/A,,Clear,240,2013-03-19 23:15:00
4:35 PM,55.4,21.2,26,30.17,10.0,West,9.2,-,N/A,,Clear,260,2013-03-19 23:35:00
4:55 PM,55.4,21.2,26,30.17,10.0,WSW,9.2,16.1,N/A,,Clear,250,2013-03-19 23:55:00
5:15 PM,55.4,21.2,26,30.17,10.0,WSW,6.9,-,N/A,,Clear,250,2013-03-20 00:15:00
5:35 PM,55.4,21.2,26,30.17,10.0,WSW,5.8,-,N/A,,Clear,240,2013-03-20 00:35:00
5:55 PM,53.6,21.2,28,30.17,10.0,West,8.1,-,N/A,,Clear,260,2013-03-20 00:55:00
6:15 PM,53.6,23.0,30,30.17,10.0,West,5.8,-,N/A,,Clear,260,2013-03-20 01:15:00
6:35 PM,50.0,33.8,54,30.18,10.0,West,10.4,-,N/A,,Clear,260,2013-03-20 01:35:00
6:55 PM,46.4,33.8,62,30.18,7.0,West,9.2,-,N/A,,Clear,270,2013-03-20 01:55:00
7:15 PM,46.4,33.8,62,30.19,7.0,WSW,3.5,-,N/A,,Clear,250,2013-03-20 02:15:00
7:35 PM,44.6,33.8,66,30.19,10.0,Calm,Calm,-,N/A,,Clear,0,2013-03-20 02:35:00
7:55 PM,44.6,32.0,61,30.20,10.0,Calm,Calm,-,N/A,,Clear,0,2013-03-20 02:55:00
8:15 PM,42.8,32.0,66,30.21,10.0,Calm,Calm,-,N/A,,Clear,0,2013-03-20 03:15:00
8:35 PM,41.0,30.2,65,30.21,10.0,Calm,Calm,-,N/A,,Clear,0,2013-03-20 03:35:00
8:55 PM,39.2,28.4,65,30.22,10.0,Calm,Calm,-,N/A,,Clear,0,2013-03-20 03:55:00
9:15 PM,37.4,28.4,70,30.23,10.0,SW,3.5,-,N/A,,Clear,230,2013-03-20 04:15:00
9:35 PM,37.4,28.4,70,30.23,10.0,SSW,3.5,-,N/A,,Clear,210,2013-03-20 04:35:00
9:55 PM,37.4,28.4,70,30.23,10.0,Calm,Calm,-,N/A,,Clear,0,2013-03-20 04:55:00
10:15 PM,35.6,28.4,75,30.23,10.0,Calm,Calm,-,N/A,,Clear,0,2013-03-20 05:15:00
10:35 PM,35.6,28.4,75,30.23,10.0,WSW,3.5,-,N/A,,Clear,240,2013-03-20 05:35:00
10:55 PM,35.6,28.4,75,30.23,10.0,Calm,Calm,-,N/A,,Clear,0,2013-03-20 05:55:00
11:15 PM,35.6,26.6,70,30.23,10.0,Calm,Calm,-,N/A,,Clear,0,2013-03-20 06:15:00
11:35 PM,35.6,26.6,70,30.23,10.0,Calm,Calm,-,N/A,,Clear,0,2013-03-20 06:35:00
11:55 PM,35.6,26.6,70,30.23,10.0,Calm,Calm,-,N/A,,Clear,0,2013-03-20 06:55:00